QPF
0.02 0.02 0.02 0.02 0.02 0.03 0.04 0.05 0.04 0.05 0.05 0.07 0.09 0.09 0.07 0.06 0.07 0.06 0.05 0.03 0.03 0.03 0.03 0.03 0.04 0.04 0.04 0.03 0.03 0.03 0.04 0.04 0.04 0.03 0.02 0.02 0.02 0.02 0.03 0.05 0.05 0.06 0.06
0.02 0.02 0.02 0.02 0.02 0.03 0.04 0.05 0.05 0.05 0.05 0.05 0.07 0.09 0.08 0.06 0.05 0.06 0.05 0.05 0.04 0.04 0.04 0.04 0.04 0.04 0.04 0.04 0.03 0.03 0.03 0.03 0.04 0.03 0.03 0.03 0.03 0.03 0.02 0.03 0.04 0.05 0.06
0.04 0.03 0.03 0.03 0.03 0.03 0.04 0.05 0.06 0.05 0.05 0.05 0.05 0.06 0.07 0.07 0.06 0.05 0.05 0.04 0.05 0.05 0.04 0.05 0.05 0.05 0.05 0.04 0.04 0.03 0.04 0.04 0.04 0.04 0.04 0.04 0.04 0.04 0.04 0.04 0.04 0.05 0.05
0.04 0.04 0.04 0.04 0.04 0.04 0.04 0.04 0.04 0.05 0.05 0.05 0.05 0.05 0.05 0.06 0.06 0.07 0.07 0.06 0.05 0.05 0.06 0.07 0.06 0.05 0.06 0.06 0.06 0.05 0.04 0.04 0.04 0.05 0.04 0.04 0.04 0.05 0.05 0.06 0.07 0.07 0.06
0.04 0.03 0.03 0.04 0.05 0.05 0.05 0.05 0.06 0.05 0.05 0.05 0.05 0.05 0.05 0.05 0.05 0.06 0.07 0.08 0.07 0.06 0.06 0.07 0.08 0.08 0.07 0.07 0.08 0.07 0.07 0.07 0.06 0.05 0.05 0.05 0.05 0.05 0.06 0.07 0.08 0.08 0.08
0.04 0.03 0.03 0.03 0.03 0.04 0.04 0.04 0.06 0.06 0.06 0.05 0.05 0.06 0.06 0.06 0.06 0.07 0.08 0.08 0.08 0.07 0.06 0.05 0.06 0.07 0.08 0.08 0.08 0.08 0.08 0.09 0.08 0.07 0.07 0.06 0.06 0.05 0.06 0.07 0.08 0.09 0.10
0.03 0.02 0.02 0.02 0.03 0.03 0.03 0.03 0.03 0.04 0.04 0.04 0.04 0.04 0.04 0.05 0.05 0.06 0.07 0.08 0.07 0.07 0.07 0.07 0.06 0.06 0.06 0.06 0.08 0.09 0.10 0.11 0.10 0.09 0.08 0.07 0.06 0.05 0.05 0.06 0.08 0.09 0.08
0.03 0.02 0.02 0.02 0.02 0.03 0.03 0.03 0.03 0.02 0.02 0.03 0.03 0.03 0.03 0.03 0.03 0.03 0.05 0.06 0.06 0.06 0.07 0.08 0.09 0.08 0.07 0.06 0.07 0.07 0.07 0.08 0.09 0.07 0.06 0.05 0.05 0.05 0.05 0.06 0.08 0.09 0.08
0.03 0.03 0.03 0.03 0.02 0.02 0.03 0.03 0.03 0.03 0.03 0.02 0.02 0.03 0.03 0.03 0.02 0.02 0.03 0.04 0.04 0.04 0.05 0.06 0.06 0.06 0.06 0.06 0.06 0.05 0.04 0.05 0.05 0.05 0.05 0.05 0.06 0.06 0.06 0.06 0.09 0.10 0.09
0.03 0.03 0.03 0.03 0.03 0.03 0.03 0.03 0.03 0.03 0.03 0.03 0.02 0.02 0.02 0.02 0.02 0.02 0.03 0.04 0.04 0.04 0.04 0.05 0.05 0.05 0.06 0.07 0.06 0.06 0.06 0.05 0.06 0.05 0.05 0.05 0.05 0.05 0.06 0.06 0.08 0.09 0.08
0.02 0.02 0.02 0.02 0.02 0.03 0.03 0.03 0.03 0.04 0.04 0.04 0.03 0.02 0.02 0.02 0.02 0.02 0.03 0.03 0.03 0.03 0.04 0.05 0.05 0.06 0.06 0.07 0.08 0.08 0.08 0.07 0.07 0.06 0.05 0.04 0.04 0.05 0.05 0.06 0.07 0.08 0.07
0.01 0.01 0.01 0.02 0.02 0.03 0.03 0.03 0.03 0.03 0.04 0.04 0.04 0.04 0.03 0.02 0.02 0.02 0.02 0.02 0.03 0.03 0.03 0.04 0.05 0.05 0.05 0.06 0.07 0.07 0.08 0.07 0.07 0.08 0.07 0.05 0.05 0.06 0.06 0.06 0.06 0.07 0.06
0.00 0.00 0.01 0.01 0.01 0.02 0.02 0.03 0.03 0.03 0.03 0.03 0.03 0.03 0.03 0.03 0.02 0.02 0.02 0.02 0.03 0.02 0.02 0.03 0.05 0.05 0.05 0.05 0.07 0.07 0.07 0.08 0.08 0.09 0.09 0.07 0.06 0.05 0.05 0.05 0.05 0.06 0.06
0.00 0.00 0.00 0.01 0.01 0.01 0.01 0.02 0.02 0.03 0.04 0.04 0.04 0.04 0.03 0.03 0.03 0.03 0.02 0.02 0.02 0.03 0.03 0.03 0.05 0.05 0.05 0.05 0.05 0.06 0.07 0.09 0.11 0.11 0.10 0.09 0.08 0.06 0.06 0.06 0.06 0.06 0.07
0.00 0.00 0.00 0.00 0.01 0.01 0.01 0.02 0.03 0.04 0.05 0.05 0.05 0.05 0.04 0.04 0.04 0.04 0.04 0.04 0.04 0.04 0.04 0.04 0.05 0.07 0.06 0.05 0.05 0.05 0.06 0.07 0.09 0.09 0.09 0.09 0.09 0.09 0.09 0.08 0.07 0.08 0.08
0.01 0.01 0.01 0.01 0.01 0.01 0.01 0.01 0.01 0.02 0.03 0.03 0.04 0.04 0.04 0.04 0.04 0.04 0.04 0.05 0.05 0.05 0.06 0.06 0.05 0.06 0.06 0.05 0.05 0.05 0.06 0.06 0.07 0.08 0.09 0.10 0.10 0.09 0.09 0.09 0.09 0.08 0.08
0.01 0.02 0.01 0.01 0.01 0.01 0.01 0.01 0.01 0.01 0.01 0.02 0.02 0.03 0.04 0.04 0.04 0.04 0.04 0.04 0.05 0.06 0.07 0.07 0.06 0.05 0.05 0.05 0.04 0.04 0.05 0.06 0.06 0.07 0.09 0.10 0.11 0.11 0.10 0.09 0.10 0.09 0.08
0.01 0.01 0.02 0.01 0.01 0.01 0.01 0.02 0.02 0.02 0.02 0.02 0.02 0.02 0.03 0.03 0.04 0.04 0.04 0.04 0.05 0.06 0.07 0.07 0.06 0.06 0.06 0.06 0.05 0.05 0.04 0.05 0.06 0.08 0.09 0.09 0.10 0.10 0.11 0.11 0.10 0.10 0.09
0.01 0.01 0.01 0.02 0.01 0.01 0.02 0.02 0.02 0.02 0.02 0.02 0.02 0.02 0.02 0.03 0.03 0.03 0.04 0.05 0.05 0.05 0.06 0.06 0.05 0.05 0.05 0.05 0.06 0.06 0.05 0.05 0.05 0.07 0.08 0.08 0.08 0.08 0.09 0.10 0.10 0.10 0.09
0.01 0.01 0.01 0.02 0.02 0.02 0.02 0.02 0.02 0.02 0.02 0.02 0.02 0.02 0.02 0.02 0.03 0.03 0.04 0.05 0.05 0.05 0.06 0.06 0.05 0.05 0.05 0.05 0.06 0.06 0.07 0.07 0.06 0.06 0.07 0.07 0.07 0.07 0.07 0.08 0.08 0.08 0.08
0.01 0.01 0.01 0.02 0.02 0.02 0.03 0.03 0.03 0.03 0.02 0.03 0.03 0.03 0.03 0.03 0.03 0.03 0.03 0.04 0.05 0.05 0.05 0.05 0.05 0.05 0.05 0.05 0.05 0.06 0.07 0.07 0.07 0.06 0.07 0.07 0.06 0.06 0.06 0.06 0.06 0.06 0.07
0.02 0.02 0.02 0.02 0.03 0.03 0.04 0.04 0.04 0.04 0.03 0.03 0.02 0.02 0.03 0.03 0.03 0.04 0.04 0.04 0.05 0.05 0.05 0.05 0.05 0.05 0.05 0.05 0.05 0.06 0.06 0.06 0.06 0.05 0.05 0.06 0.06 0.06 0.05 0.05 0.05 0.05 0.05
0.03 0.03 0.03 0.03 0.04 0.04 0.05 0.05 0.05 0.05 0.04 0.03 0.03 0.02 0.02 0.03 0.03 0.03 0.04 0.05 0.04 0.04 0.05 0.04 0.04 0.04 0.04 0.05 0.05 0.05 0.06 0.05 0.05 0.05 0.05 0.05 0.05 0.06 0.05 0.05 0.05 0.04 0.04
0.04 0.05 0.04 0.04 0.04 0.05 0.05 0.05 0.05 0.05 0.04 0.03 0.02 0.02 0.02 0.03 0.03 0.03 0.03 0.04 0.04 0.03 0.03 0.04 0.04 0.03 0.03 0.03 0.04 0.04 0.05 0.05 0.05 0.05 0.04 0.04 0.04 0.04 0.05 0.04 0.04 0.04 0.05
0.04 0.04 0.05 0.05 0.05 0.05 0.05 0.04 0.04 0.05 0.04 0.03 0.03 0.03 0.03 0.03 0.03 0.03 0.03 0.04 0.04 0.03 0.04 0.04 0.04 0.04 0.03 0.03 0.04 0.04 0.04 0.04 0.05 0.06 0.06 0.05 0.04 0.04 0.04 0.05 0.04 0.05 0.05
0.04 0.04 0.04 0.05 0.05 0.05 0.05 0.05 0.05 0.05 0.05 0.04 0.04 0.04 0.04 0.04 0.04 0.04 0.05 0.04 0.04 0.04 0.04 0.04 0.04 0.04 0.04 0.04 0.04 0.04 0.04 0.04 0.05 0.06 0.06 0.06 0.06 0.05 0.05 0.05 0.05 0.05 0.05
MSLP
1023.60 1023.89 1024.17 1024.42 1024.60 1024.72 1024.76 1024.72 1024.60 1024.40 1024.13 1023.78 1023.34 1022.83 1022.23 1021.56 1020.81 1020.00 1019.13 1018.22 1017.29 1016.35 1015.42 1014.52 1013.67 1012.89 1012.17 1011.53 1010.95 1010.40 1009.87 1009.33 1008.76 1008.14 1007.48 1006.79 1006.12 1005.51 1005.04 1004.76 1004.73 1004.98 1005.55
1023.05 1023.28 1023.51 1023.72 1023.89 1024.01 1024.07 1024.05 1023.97 1023.80 1023.54 1023.20 1022.75 1022.20 1021.56 1020.82 1019.99 1019.07 1018.08 1017.02 1015.92 1014.79 1013.67 1012.57 1011.55 1010.62 1009.81 1009.14 1008.61 1008.19 1007.85 1007.55 1007.26 1006.92 1006.51 1006.02 1005.47 1004.90 1004.39 1003.99 1003.80 1003.87 1004.26
1022.66 1022.82 1022.99 1023.14 1023.27 1023.35 1023.39 1023.38 1023.30 1023.13 1022.88 1022.53 1022.08 1021.52 1020.85 1020.07 1019.18 1018.19 1017.10 1015.92 1014.66 1013.36 1012.03 1010.73 1009.49 1008.38 1007.43 1006.68 1006.14 1005.80 1005.63 1005.56 1005.53 1005.48 1005.34 1005.08 1004.70 1004.22 1003.71 1003.24 1002.92 1002.82 1003.03
1022.40 1022.50 1022.60 1022.68 1022.74 1022.78 1022.79 1022.74 1022.64 1022.47 1022.20 1021.84 1021.38 1020.81 1020.13 1019.34 1018.43 1017.40 1016.26 1014.99 1013.62 1012.16 1010.64 1009.13 1007.68 1006.36 1005.24 1004.36 1003.77 1003.45 1003.37 1003.47 1003.66 1003.87 1003.99 1003.96 1003.76 1003.40 1002.94 1002.45 1002.04 1001.81 1001.88
1022.21 1022.27 1022.30 1022.33 1022.33 1022.32 1022.27 1022.19 1022.05 1021.85 1021.56 1021.18 1020.70 1020.13 1019.45 1018.66 1017.76 1016.73 1015.57 1014.27 1012.82 1011.25 1009.60 1007.91 1006.26 1004.73 1003.40 1002.37 1001.65 1001.28 1001.22 1001.40 1001.74 1002.12 1002.45 1002.62 1002.60 1002.38 1001.99 1001.52 1001.09 1000.80 1000.78
1022.04 1022.07 1022.07 1022.05 1022.01 1021.95 1021.86 1021.74 1021.56 1021.32 1021.00 1020.59 1020.09 1019.51 1018.83 1018.06 1017.18 1016.19 1015.05 1013.75 1012.28 1010.65 1008.90 1007.08 1005.27 1003.55 1002.03 1000.80 999.93 999.43 999.29 999.46 999.83 1000.30 1000.75 1001.06 1001.18 1001.08 1000.80 1000.41 1000.00 999.72 999.67
1021.84 1021.86 1021.84 1021.80 1021.74 1021.66 1021.54 1021.39 1021.18 1020.90 1020.54 1020.10 1019.57 1018.97 1018.29 1017.54 1016.69 1015.73 1014.64 1013.38 1011.94 1010.32 1008.53 1006.63 1004.70 1002.84 1001.13 999.71 998.64 997.95 997.65 997.70 998.00 998.44 998.90 999.27 999.48 999.49 999.32 999.03 998.71 998.50 998.49
1021.55 1021.59 1021.58 1021.55 1021.49 1021.41 1021.29 1021.12 1020.89 1020.58 1020.18 1019.71 1019.15 1018.52 1017.84 1017.09 1016.27 1015.35 1014.32 1013.13 1011.75 1010.17 1008.40 1006.49 1004.51 1002.54 1000.69 999.08 997.79 996.88 996.35 996.19 996.30 996.60 996.98 997.31 997.54 997.61 997.53 997.36 997.18 997.08 997.19
1021.18 1021.23 1021.26 1021.25 1021.22 1021.16 1021.06 1020.90 1020.66 1020.33 1019.91 1019.40 1018.81 1018.16 1017.45 1016.70 1015.89 1015.02 1014.04 1012.93 1011.63 1010.14 1008.44 1006.57 1004.59 1002.57 1000.63 998.86 997.37 996.21 995.41 994.96 994.81 994.87 995.06 995.27 995.44 995.52 995.51 995.45 995.41 995.47 995.73
1020.72 1020.80 1020.85 1020.88 1020.89 1020.87 1020.80 1020.66 1020.44 1020.12 1019.69 1019.16 1018.54 1017.86 1017.13 1016.36 1015.57 1014.72 1013.80 1012.75 1011.55 1010.16 1008.57 1006.79 1004.86 1002.85 1000.86 998.98 997.31 995.91 994.83 994.07 993.60 993.36 993.29 993.30 993.34 993.37 993.38 993.40 993.50 993.73 994.16
1020.19 1020.29 1020.37 1020.44 1020.48 1020.51 1020.48 1020.38 1020.19 1019.89 1019.47 1018.94 1018.31 1017.61 1016.86 1016.09 1015.29 1014.46 1013.58 1012.61 1011.50 1010.22 1008.75 1007.09 1005.26 1003.31 1001.32 999.39 997.58 995.98 994.64 993.57 992.77 992.21 991.83 991.59 991.44 991.36 991.34 991.41 991.60 991.96 992.55
1019.64 1019.74 1019.83 1019.92 1020.00 1020.06 1020.08 1020.02 1019.87 1019.61 1019.22 1018.71 1018.09 1017.39 1016.65 1015.87 1015.07 1014.27 1013.42 1012.51 1011.49 1010.32 1008.98 1007.46 1005.75 1003.91 1001.99 1000.05 998.17 996.43 994.88 993.54 992.43 991.55 990.86 990.35 989.98 989.74 989.63 989.68 989.91 990.35 991.05
1019.10 1019.19 1019.27 1019.37 1019.47 1019.55 1019.60 1019.58 1019.48 1019.26 1018.92 1018.45 1017.87 1017.20 1016.47 1015.71 1014.93 1014.14 1013.33 1012.47 1011.54 1010.48 1009.27 1007.89 1006.34 1004.64 1002.82 1000.95 999.07 997.26 995.57 994.03 992.68 991.51 990.54 989.76 989.15 988.72 988.48 988.45 988.65 989.10 989.83
1018.61 1018.67 1018.74 1018.82 1018.91 1018.99 1019.06 1019.07 1019.01 1018.85 1018.57 1018.16 1017.64 1017.02 1016.34 1015.61 1014.86 1014.10 1013.33 1012.53 1011.66 1010.71 1009.63 1008.41 1007.03 1005.49 1003.82 1002.07 1000.26 998.46 996.72 995.07 993.55 992.18 990.98 989.96 989.12 988.49 988.09 987.92 988.02 988.40 989.07
1018.19 1018.22 1018.26 1018.30 1018.37 1018.44 1018.50 1018.53 1018.50 1018.39 1018.17 1017.83 1017.38 1016.84 1016.22 1015.55 1014.85 1014.14 1013.41 1012.66 1011.88 1011.02 1010.07 1009.00 1007.79 1006.44 1004.97 1003.37 1001.71 1000.00 998.30 996.63 995.04 993.55 992.19 990.99 989.97 989.15 988.55 988.21 988.15 988.37 988.89
1017.87 1017.86 1017.85 1017.86 1017.88 1017.92 1017.97 1017.99 1017.98 1017.90 1017.74 1017.47 1017.11 1016.64 1016.10 1015.51 1014.87 1014.22 1013.55 1012.86 1012.15 1011.40 1010.57 1009.65 1008.62 1007.47 1006.20 1004.82 1003.34 1001.79 1000.21 998.62 997.05 995.54 994.12 992.81 991.65 990.67 989.90 989.36 989.09 989.10 989.40
1017.62 1017.58 1017.53 1017.49 1017.47 1017.47 1017.49 1017.50 1017.49 1017.43 1017.31 1017.10 1016.81 1016.43 1015.97 1015.45 1014.90 1014.31 1013.71 1013.09 1012.46 1011.80 1011.09 1010.32 1009.46 1008.51 1007.46 1006.30 1005.04 1003.70 1002.30 1000.86 999.40 997.95 996.55 995.21 993.98 992.88 991.96 991.24 990.76 990.52 990.54
1017.40 1017.35 1017.27 1017.20 1017.14 1017.11 1017.08 1017.07 1017.05 1017.00 1016.90 1016.74 1016.50 1016.19 1015.81 1015.38 1014.89 1014.38 1013.85 1013.31 1012.76 1012.19 1011.59 1010.95 1010.26 1009.49 1008.65 1007.71 1006.69 1005.58 1004.40 1003.15 1001.86 1000.54 999.22 997.92 996.69 995.54 994.52 993.65 992.96 992.49 992.23
1017.19 1017.13 1017.05 1016.96 1016.88 1016.82 1016.76 1016.72 1016.68 1016.62 1016.53 1016.39 1016.20 1015.94 1015.63 1015.26 1014.85 1014.41 1013.95 1013.48 1013.01 1012.52 1012.02 1011.50 1010.94 1010.34 1009.68 1008.95 1008.14 1007.26 1006.30 1005.27 1004.17 1003.03 1001.85 1000.66 999.48 998.34 997.28 996.31 995.48 994.80 994.30
1016.93 1016.89 1016.83 1016.75 1016.66 1016.59 1016.51 1016.45 1016.38 1016.31 1016.21 1016.08 1015.90 1015.68 1015.42 1015.11 1014.76 1014.38 1013.99 1013.59 1013.18 1012.77 1012.35 1011.92 1011.47 1010.99 1010.48 1009.91 1009.29 1008.60 1007.85 1007.03 1006.13 1005.18 1004.17 1003.12 1002.06 1000.99 999.95 998.96 998.04 997.23 996.54
1016.61 1016.61 1016.58 1016.53 1016.47 1016.40 1016.32 1016.24 1016.15 1016.06 1015.95 1015.81 1015.64 1015.44 1015.20 1014.93 1014.63 1014.31 1013.97 1013.62 1013.27 1012.91 1012.55 1012.18 1011.81 1011.41 1011.00 1010.55 1010.06 1009.52 1008.94 1008.29 1007.58 1006.81 1005.98 1005.10 1004.19 1003.24 1002.28 1001.34 1000.42 999.55 998.75
1016.24 1016.29 1016.31 1016.31 1016.28 1016.23 1016.16 1016.08 1015.98 1015.87 1015.74 1015.60 1015.42 1015.23 1015.01 1014.76 1014.50 1014.21 1013.91 1013.60 1013.28 1012.96 1012.63 1012.29 1011.95 1011.60 1011.23 1010.84 1010.43 1009.99 1009.52 1009.01 1008.45 1007.84 1007.18 1006.48 1005.73 1004.94 1004.12 1003.28 1002.43 1001.59 1000.78
1015.85 1015.95 1016.03 1016.08 1016.10 1016.08 1016.04 1015.96 1015.86 1015.74 1015.60 1015.44 1015.26 1015.06 1014.84 1014.61 1014.36 1014.10 1013.82 1013.53 1013.22 1012.91 1012.58 1012.25 1011.91 1011.55 1011.19 1010.82 1010.44 1010.04 1009.63 1009.20 1008.75 1008.28 1007.77 1007.23 1006.65 1006.03 1005.38 1004.69 1003.98 1003.24 1002.50
1015.51 1015.66 1015.78 1015.88 1015.94 1015.96 1015.94 1015.88 1015.78 1015.66 1015.51 1015.33 1015.14 1014.94 1014.72 1014.48 1014.24 1013.98 1013.71 1013.42 1013.11 1012.79 1012.45 1012.09 1011.72 1011.33 1010.94 1010.55 1010.16 1009.77 1009.38 1009.00 1008.62 1008.24 1007.85 1007.45 1007.03 1006.59 1006.11 1005.60 1005.06 1004.47 1003.85
1015.28 1015.45 1015.60 1015.73 1015.83 1015.87 1015.87 1015.83 1015.74 1015.62 1015.46 1015.28 1015.07 1014.86 1014.63 1014.39 1014.13 1013.87 1013.58 1013.28 1012.95 1012.60 1012.23 1011.83 1011.41 1010.98 1010.55 1010.11 1009.69 1009.28 1008.89 1008.53 1008.19 1007.87 1007.58 1007.30 1007.02 1006.73 1006.42 1006.09 1005.72 1005.31 1004.86
1015.22 1015.38 1015.54 1015.68 1015.79 1015.85 1015.86 1015.82 1015.73 1015.60 1015.44 1015.25 1015.03 1014.80 1014.55 1014.30 1014.02 1013.74 1013.43 1013.09 1012.73 1012.34 1011.93 1011.48 1011.01 1010.53 1010.05 1009.57 1009.11 1008.67 1008.27 1007.92 1007.61 1007.34 1007.11 1006.92 1006.75 1006.59 1006.43 1006.26 1006.06 1005.82 1005.53
Thickness
5422 5423 5424 5425 5426 5427 5428 5429 5430 5431 5433 5436 5438 5440 5442 5444 5446 5449 5451 5453 5455 5457 5459 5461 5464 5466 5469 5472 5474 5478 5481 5484 5489 5498 5501 5504 5507 5512 5516 5520 5525 5530 5535
5409 5411 5412 5413 5414 5415 5416 5417 5419 5421 5423 5425 5427 5429 5431 5433 5434 5436 5438 5440 5442 5445 5448 5450 5454 5455 5458 5461 5463 5466 5470 5473 5476 5483 5488 5490 5494 5499 5503 5508 5513 5519 5524
5397 5398 5400 5401 5402 5403 5404 5406 5408 5410 5412 5414 5416 5418 5419 5421 5421 5423 5425 5427 5429 5433 5436 5439 5442 5444 5447 5449 5452 5455 5459 5462 5464 5469 5475 5478 5481 5485 5489 5494 5501 5507 5513
5384 5385 5387 5388 5389 5390 5392 5394 5396 5399 5401 5403 5404 5406 5407 5409 5410 5410 5411 5414 5417 5420 5423 5427 5430 5433 5436 5438 5440 5443 5446 5450 5452 5456 5461 5464 5468 5472 5475 5480 5488 5495 5501
5371 5372 5373 5375 5376 5378 5381 5383 5385 5388 5390 5391 5393 5395 5396 5397 5399 5400 5401 5402 5404 5408 5411 5415 5418 5422 5425 5427 5430 5432 5434 5437 5440 5443 5447 5451 5455 5458 5462 5467 5473 5481 5488
5358 5359 5360 5362 5364 5367 5370 5373 5375 5376 5377 5379 5381 5383 5384 5386 5387 5389 5390 5391 5393 5396 5399 5403 5406 5409 5412 5416 5418 5421 5423 5425 5429 5431 5436 5439 5444 5447 5450 5455 5460 5466 5476
5346 5347 5348 5349 5352 5354 5359 5361 5362 5363 5365 5368 5369 5370 5372 5374 5375 5377 5378 5379 5381 5384 5386 5390 5394 5398 5401 5403 5406 5409 5412 5414 5417 5420 5425 5430 5433 5436 5438 5444 5449 5455 5464
5334 5335 5336 5338 5340 5342 5346 5348 5350 5352 5353 5355 5357 5358 5359 5361 5362 5364 5365 5367 5369 5372 5374 5377 5381 5385 5389 5391 5394 5398 5401 5403 5405 5408 5414 5419 5422 5425 5428 5433 5438 5444 5451
5322 5322 5324 5325 5327 5330 5333 5335 5337 5339 5341 5343 5345 5347 5348 5350 5351 5352 5353 5355 5358 5361 5363 5366 5370 5374 5378 5379 5382 5386 5390 5393 5394 5397 5402 5407 5411 5415 5418 5421 5425 5431 5440
5310 5311 5312 5314 5316 5319 5321 5323 5325 5327 5329 5331 5333 5335 5337 5338 5340 5341 5342 5343 5347 5351 5353 5356 5360 5363 5366 5367 5370 5374 5379 5382 5384 5387 5391 5396 5400 5404 5408 5412 5416 5421 5427
5299 5300 5302 5303 5304 5307 5310 5312 5313 5315 5317 5319 5321 5324 5325 5326 5328 5330 5331 5332 5335 5338 5341 5345 5349 5352 5354 5357 5360 5363 5367 5369 5372 5376 5381 5386 5389 5394 5398 5402 5406 5410 5415
5289 5290 5292 5292 5294 5297 5298 5300 5302 5303 5306 5307 5309 5312 5313 5314 5316 5318 5319 5321 5323 5325 5329 5333 5337 5340 5342 5344 5347 5351 5354 5356 5360 5364 5369 5374 5379 5384 5388 5392 5397 5401 5405
5279 5280 5280 5282 5283 5285 5286 5288 5289 5291 5293 5295 5298 5300 5302 5303 5304 5306 5308 5310 5311 5313 5317 5321 5324 5327 5329 5331 5334 5337 5339 5343 5348 5351 5355 5361 5367 5373 5377 5381 5386 5389 5392
5269 5270 5270 5271 5272 5273 5275 5276 5278 5280 5281 5284 5286 5288 5289 5291 5292 5294 5295 5298 5300 5301 5304 5308 5311 5313 5315 5318 5320 5323 5326 5331 5335 5338 5343 5348 5354 5360 5366 5370 5373 5376 5377
5259 5260 5260 5261 5261 5262 5264 5264 5266 5268 5269 5271 5273 5275 5276 5278 5280 5282 5283 5286 5288 5289 5291 5294 5297 5299 5301 5305 5307 5310 5314 5318 5322 5326 5331 5335 5340 5346 5352 5357 5360 5363 5365
5249 5250 5250 5250 5251 5252 5253 5255 5257 5258 5260 5261 5262 5263 5265 5267 5269 5270 5273 5275 5277 5278 5279 5281 5283 5285 5288 5291 5295 5298 5301 5305 5310 5313 5317 5322 5327 5332 5337 5341 5345 5348 5351
5239 5239 5239 5240 5241 5242 5243 5244 5247 5249 5250 5251 5252 5254 5255 5257 5259 5260 5261 5263 5265 5266 5266 5268 5270 5272 5274 5278 5281 5284 5288 5292 5297 5300 5304 5308 5313 5318 5322 5326 5329 5332 5336
5231 5231 5232 5231 5231 5231 5232 5234 5235 5237 5239 5241 5243 5244 5246 5247 5248 5249 5250 5251 5251 5252 5253 5255 5257 5259 5261 5264 5268 5271 5275 5279 5283 5287 5292 5296 5300 5304 5307 5310 5314 5317 5320
5225 5224 5224 5223 5223 5223 5224 5225 5225 5226 5228 5230 5232 5234 5235 5236 5237 5238 5238 5238 5238 5239 5241 5243 5245 5247 5250 5252 5255 5259 5263 5267 5271 5275 5279 5283 5287 5290 5294 5297 5299 5302 5305
5218 5218 5217 5216 5215 5216 5216 5216 5217 5217 5218 5219 5220 5221 5223 5224 5225 5225 5225 5226 5226 5228 5230 5232 5234 5236 5239 5242 5245 5247 5251 5256 5260 5264 5267 5270 5274 5277 5280 5283 5285 5287 5291
5211 5211 5210 5208 5208 5208 5208 5209 5209 5209 5210 5210 5211 5212 5213 5213 5213 5213 5214 5215 5217 5218 5220 5223 5225 5226 5228 5231 5234 5237 5241 5245 5249 5252 5255 5258 5261 5264 5266 5269 5271 5274 5278
5205 5204 5203 5202 5201 5201 5201 5201 5201 5202 5202 5203 5203 5203 5204 5203 5203 5204 5205 5206 5207 5209 5211 5213 5215 5217 5220 5222 5225 5228 5232 5236 5239 5242 5245 5247 5249 5252 5255 5257 5259 5262 5266
5199 5198 5198 5196 5195 5195 5194 5194 5194 5194 5195 5195 5195 5195 5195 5195 5195 5196 5196 5198 5199 5200 5202 5204 5207 5210 5211 5214 5217 5220 5224 5228 5231 5233 5236 5238 5240 5243 5245 5247 5249 5252 5255
5194 5193 5192 5191 5190 5188 5188 5188 5188 5188 5188 5188 5188 5187 5187 5186 5186 5187 5188 5189 5190 5192 5194 5196 5199 5201 5204 5206 5209 5212 5216 5219 5222 5225 5228 5230 5232 5234 5236 5238 5240 5242 5246
5189 5188 5186 5185 5184 5183 5182 5182 5181 5182 5182 5182 5181 5181 5180 5180 5179 5180 5180 5181 5183 5185 5187 5189 5191 5194 5197 5199 5202 5205 5208 5212 5215 5218 5221 5223 5225 5227 5229 5230 5232 5234 5237
5183 5182 5181 5180 5179 5178 5177 5176 5176 5176 5176 5176 5175 5174 5174 5173 5173 5173 5173 5174 5176 5177 5180 5182 5184 5187 5189 5192 5195 5199 5203 5206 5210 5213 5216 5218 5220 5221 5222 5224 5225 5227 5228